Weather History for Athens Eleftherios, Greece

Change the Weather History Date:

Thursday, April 4, 2013

  Actual Average Record
Temperature  
Mean Temperature 61 °F -  
Max Temperature 71 °F - - ()
Min Temperature 51 °F - - ()
Degree Days  
Heating Degree Days 4    
Growing Degree Days 11 (Base 50)    
Moisture  
Dew Point 42 °F    
Average Humidity 49    
Maximum Humidity 67    
Minimum Humidity 28    
Precipitation  
Precipitation 0.00 in - - ()
Sea Level Pressure  
Sea Level Pressure 29.80 in    
Wind  
Wind Speed 6 mph ()    
Max Wind Speed 20 mph    
Max Gust Speed -    
Visibility 6.2 miles    
Events      
T = Trace of Precipitation, MM = Missing Value Source: Averaged Metar Reports

Daily Weather History Graph

Daily Weather History Graph

Search for Another Location

Airport:

Trip Planner

Search our weather history database for the weather conditions in past years. The results will help you decide how hot, cold, wet, or windy it might be!

Date:

Astronomy

Apr. 04, 2013 Rise Set
Actual Time 7:05 AM EEST 7:50 PM EEST
Civil Twilight 6:38 AM EEST 8:16 PM EEST
Nautical Twilight 6:07 AM EEST 8:48 PM EEST
Astronomical Twilight 5:34 AM EEST 9:20 PM EEST
Moon 3:12 AM EEST (4/4) 1:53 PM EEST (4/4)
Length of Visible Light 13h 38m
Length of Day
12h 44m
Last Quarter, 37% of the Moon is Illuminated
Apr 4
Last Quarter
Apr 10
New
Apr 18
First Quarter
Apr 25
Full
May 2
Last Quarter

Hourly Weather History & Observations

Time (EEST) Temp. Dew Point Humidity Pressure Visibility Wind Dir Wind Speed Gust Speed Precip Events Conditions
12:20 AM 59.0 °F 41.0 °F 51% 29.68 in 6.2 mi Variable 2.3 mph - N/A   Scattered Clouds
12:50 AM 57.2 °F 42.8 °F 59% 29.68 in 6.2 mi Variable 2.3 mph - N/A   Scattered Clouds
1:20 AM 57.2 °F 42.8 °F 59% 29.68 in 6.2 mi SW 4.6 mph - N/A   Partly Cloudy
1:50 AM 57.2 °F 42.8 °F 59% 29.68 in 6.2 mi Variable 3.5 mph - N/A   Partly Cloudy
2:20 AM 57.2 °F 42.8 °F 59% 29.68 in 6.2 mi Variable 1.2 mph - N/A   Scattered Clouds
2:50 AM 53.6 °F 41.0 °F 62% 29.68 in 6.2 mi North 4.6 mph - N/A   Scattered Clouds
3:20 AM 55.4 °F 44.6 °F 67% 29.71 in 6.2 mi Variable 2.3 mph - N/A   Scattered Clouds
3:50 AM 55.4 °F 44.6 °F 67% 29.71 in 6.2 mi Variable 3.5 mph - N/A   Scattered Clouds
4:20 AM 53.6 °F 42.8 °F 67% 29.71 in 6.2 mi Variable 3.5 mph - N/A   Scattered Clouds
4:50 AM 55.4 °F 44.6 °F 67% 29.71 in 6.2 mi North 8.1 mph - N/A   Scattered Clouds
5:20 AM 55.4 °F 42.8 °F 63% 29.71 in 6.2 mi Variable 2.3 mph - N/A   Scattered Clouds
5:50 AM 55.4 °F 42.8 °F 63% 29.71 in 6.2 mi Variable 1.2 mph - N/A   Partly Cloudy
6:20 AM 55.4 °F 42.8 °F 63% 29.74 in 6.2 mi Variable 2.3 mph - N/A   Partly Cloudy
6:50 AM 51.8 °F 41.0 °F 67% 29.74 in 6.2 mi ENE 5.8 mph - N/A   Partly Cloudy
7:20 AM 55.4 °F 41.0 °F 58% 29.74 in 6.2 mi Variable 3.5 mph - N/A   Partly Cloudy
7:50 AM 55.4 °F 42.8 °F 63% 29.77 in 6.2 mi Variable 3.5 mph - N/A   Partly Cloudy
8:20 AM 57.2 °F 42.8 °F 59% 29.77 in 6.2 mi Variable 2.3 mph - N/A   Partly Cloudy
8:50 AM 59.0 °F 42.8 °F 55% 29.77 in 6.2 mi Variable 1.2 mph - N/A   Partly Cloudy
9:20 AM 60.8 °F 42.8 °F 52% 29.80 in 6.2 mi Variable 3.5 mph - N/A   Partly Cloudy
9:50 AM 62.6 °F 41.0 °F 45% 29.80 in - SSW 4.6 mph - N/A   Clear
10:20 AM 64.4 °F 41.0 °F 42% 29.80 in - Variable 1.2 mph - N/A   Clear
10:50 AM 64.4 °F 39.2 °F 40% 29.80 in 6.2 mi WNW 6.9 mph - N/A   Partly Cloudy
11:20 AM 66.2 °F 42.8 °F 43% 29.83 in 6.2 mi West 6.9 mph - N/A   Partly Cloudy
11:50 AM 66.2 °F 41.0 °F 40% 29.83 in 6.2 mi WNW 11.5 mph - N/A   Partly Cloudy
12:20 PM 68.0 °F 41.0 °F 37% 29.83 in 6.2 mi West 9.2 mph - N/A   Partly Cloudy
12:50 PM 68.0 °F 41.0 °F 37% 29.83 in 6.2 mi West 12.7 mph - N/A   Partly Cloudy
1:20 PM 69.8 °F 39.2 °F 33% 29.83 in 6.2 mi West 16.1 mph - N/A   Partly Cloudy
1:50 PM 69.8 °F 37.4 °F 31% 29.83 in 6.2 mi West 12.7 mph - N/A   Partly Cloudy
2:20 PM 69.8 °F 39.2 °F 33% 29.83 in 6.2 mi West 19.6 mph - N/A   Partly Cloudy
2:50 PM 69.8 °F 39.2 °F 33% 29.83 in 6.2 mi WNW 13.8 mph - N/A   Partly Cloudy
3:20 PM 71.6 °F 37.4 °F 29% 29.83 in 6.2 mi WNW 16.1 mph - N/A   Partly Cloudy
3:50 PM 71.6 °F 37.4 °F 29% 29.83 in 6.2 mi WSW 18.4 mph - N/A   Partly Cloudy
4:20 PM 71.6 °F 37.4 °F 29% 29.83 in 6.2 mi WSW 17.3 mph - N/A   Partly Cloudy
4:50 PM 69.8 °F 35.6 °F 28% 29.83 in 6.2 mi West 15.0 mph - N/A   Partly Cloudy
5:20 PM 69.8 °F 35.6 °F 28% 29.83 in 6.2 mi WSW 15.0 mph - N/A   Partly Cloudy
5:50 PM 69.8 °F 37.4 °F 31% 29.83 in 6.2 mi WSW 13.8 mph - N/A   Partly Cloudy
6:20 PM 66.2 °F 42.8 °F 43% 29.86 in 6.2 mi SW 16.1 mph - N/A   Partly Cloudy
6:50 PM 64.4 °F 44.6 °F 49% 29.86 in 6.2 mi SW 12.7 mph - N/A   Partly Cloudy
7:20 PM 64.4 °F 44.6 °F 49% 29.86 in 6.2 mi SSW 17.3 mph - N/A   Partly Cloudy
7:50 PM 62.6 °F 44.6 °F 52% 29.86 in 6.2 mi SW 12.7 mph - N/A   Scattered Clouds
8:20 PM 62.6 °F 42.8 °F 48% 29.89 in 6.2 mi SW 13.8 mph - N/A   Scattered Clouds
8:50 PM 62.6 °F 44.6 °F 52% 29.89 in 6.2 mi SW 15.0 mph - N/A   Scattered Clouds
9:20 PM 60.8 °F 44.6 °F 55% 29.92 in 6.2 mi SW 10.4 mph - N/A   Scattered Clouds
9:50 PM 62.6 °F 42.8 °F 48% 29.92 in 6.2 mi SW 9.2 mph - N/A   Scattered Clouds
10:20 PM 60.8 °F 42.8 °F 52% 29.92 in 6.2 mi WSW 9.2 mph - N/A   Partly Cloudy
10:50 PM 60.8 °F 42.8 °F 52% 29.92 in 6.2 mi WSW 5.8 mph - N/A   Partly Cloudy
11:20 PM 59.0 °F 42.8 °F 55% 29.95 in 6.2 mi South 4.6 mph - N/A   Partly Cloudy
11:50 PM 57.2 °F 42.8 °F 59% 29.95 in 6.2 mi SSW 6.9 mph - N/A   Partly Cloudy